User: anonymous
Location: Mauna Kea VIS
(19.7591°N, 155.4561°W)
Time: 20:54:52
(UTC-10:00)
Language:

Cosmos 1624 Rocket - Orbit

View from above orbital plane
View from above orbital plane
View from above satellite
View from above satellite

Ground track
Ground track

The orbit data is extracted from the following two-line orbital elements,

1 15483U 85006B   14244.46193661  .00000187  00000-0  73465-4 0  3035
2 15483 074.0448 066.3630 0019762 297.7200 154.8066 14.35849835550174
Epoch (UTC): 01 September 2014 11:05:11
Eccentricity: 0.0019762
inclination: 74.0448°
perigee height: 758 km
apogee height: 786 km
right ascension of ascending node: 66.3630°
argument of perigee: 297.7200°
revolutions per day: 14.35849835
mean anomaly at epoch: 154.8066°
orbit number at epoch: 55017

The dashed part of the orbit path shows where the satellite is in the earth's shadow,  

DLR